This demonstration page uses our WeatherBlox Daily Observations layout. Learn more.

39.01783, -85.05884

Hourly Observations for January 26, 2019

Temp ( °F °C ) Dew Point ( °F °C ) Humidity (%) Winds ( mph kmh ) Pressure ( in mb ) Visibility ( mi km ) Precip ( " mm )
12:52 am 00:52 Cloudy 23 -5 9 -12.8 55 55 SW 9 15 30.18 1022 10 16.09344 0 0
1:52 am 01:52 Cloudy 23 -5 10 -12.2 57 57 SSW 10 17 30.18 1022 10 16.09344 0 0
2:52 am 02:52 Cloudy 23 -5 12 -11.1 63 63 SSW 6 9 30.15 1021 10 16.09344 0 0
3:52 am 03:52 Cloudy 23 -5 13 -10.6 65 65 SSW 6 9 30.15 1021 10 16.09344 0 0
4:52 am 04:52 Cloudy 23 -5 15 -9.4 72 72 SSW 7 11 30.15 1021 10 16.09344 0 0
5:52 am 05:52 Cloudy 24 -4.4 15 -9.4 68 68 SSW 7 11 30.15 1021 10 16.09344 0 0
6:52 am 06:52 Cloudy 25 -3.9 16 -8.9 69 69 SW 7 11 30.15 1021 10 16.09344 0 0
7:41 am 07:41 Cloudy 25 -3.9 16 -8.9 69 69 SW 8 13 30.21 1023 10 16.09344 0 0
7:52 am 07:52 Cloudy 25 -3.9 16 -8.9 69 69 SW 7 11 30.18 1022 10 16.09344 0 0
8:52 am 08:52 Mostly Cloudy 26 -3.3 17 -8.3 69 69 SSW 8 13 30.18 1022 10 16.09344 0 0
9:52 am 09:52 Cloudy with Light Snow 27 -2.8 18 -7.8 69 69 SW 7 11 30.18 1022 9 14.484096 0.001 0.001
10:52 am 10:52 Cloudy with Light Snow 28 -2.2 20 -6.7 72 72 W 10 17 30.18 1022 8 12.874752 0.001 0.001
11:52 am 11:52 Cloudy 29 -1.7 21 -6.1 72 72 SW 8 13 30.18 1022 10 16.09344 0.001 0.001
12:43 pm 12:43 Mostly Cloudy 31 -0.6 21 -6.1 67 67 SW 13 20 30.21 1023 10 16.09344 0 0
12:52 pm 12:52 Mostly Cloudy 31 -0.6 21 -6.1 67 67 SW 8 13 30.15 1021 10 16.09344 0 0
1:52 pm 13:52 Mostly Cloudy 33 0.6 21 -6.1 61 61 WSW 14 22 30.12 1020 10 16.09344 0 0
2:52 pm 14:52 Mostly Cloudy 33 0.6 20 -6.7 58 58 SW 13 20 30.09 1019 10 16.09344 0 0
3:52 pm 15:52 Cloudy 33 0.6 19 -7.2 56 56 SW 13 20 30.09 1019 10 16.09344 0 0
4:52 pm 16:52 Cloudy 33 0.6 20 -6.7 58 58 SSW 12 19 30.06 1018 10 16.09344 0 0
5:52 pm 17:52 Cloudy 33 0.6 22 -5.6 64 64 S 14 22 30.03 1017 10 16.09344 0 0
6:52 pm 18:52 Cloudy with Light Snow 33 0.6 23 -5 66 66 S 12 19 30.03 1017 7 11.265408 0.001 0.001
7:07 pm 19:07 Cloudy with Light Snow 32 0 25 -3.9 75 75 S 14 22 30.09 1019 2.5 4.02336 0.001 0.001
7:39 pm 19:39 Cloudy with Light Snow 31 -0.6 27 -2.8 85 85 S 10 17 30.09 1019 1.75 2.816352 0.01 0.254
7:46 pm 19:46 Cloudy with Light Snow 30 -1 27 -3 86 86 S 9 15 30.09 1019 2 3.218688 0.01 0.254
7:52 pm 19:52 Cloudy with Light Snow 30 -1.1 27 -2.8 88 88 S 9 15 30.03 1017 2.5 4.02336 0.01 0.254
8:04 pm 20:04 Cloudy with Light Snow 30 -1.1 27 -2.8 88 88 S 10 17 30.06 1018 3 4.828032 0.001 0.001
8:25 pm 20:25 Cloudy with Light Snow 31 -0.6 27 -2.8 85 85 S 9 15 30.06 1018 7 11.265408 0.001 0.001
8:52 pm 20:52 Cloudy 31 -0.6 27 -2.8 85 85 S 9 15 29.97 1015 10 16.09344 0.001 0.001
9:52 pm 21:52 Cloudy with Light Snow 34 1.1 26 -3.3 73 73 S 10 17 29.94 1014 10 16.09344 0.001 0.001
10:52 pm 22:52 Cloudy with Light Snow 37 2.8 26 -3.3 65 65 SSW 17 28 29.91 1013 10 16.09344 0.001 0.001
11:52 pm 23:52 Cloudy with Light Snow 37 2.8 27 -2.8 67 67 SW 16 26 29.91 1013 8 12.874752 0.001 0.001

Powered by AerisWeather